TimeMST,TemperatureF,Dew PointF,Humidity,Sea Level PressureIn,VisibilityMPH,Wind Direction,Wind SpeedMPH,Gust SpeedMPH,PrecipitationIn,Events,Conditions,WindDirDegrees,DateUTC
12:53 AM,35.1,30.9,85,30.23,10.0,NW,5.8,-,N/A,,Clear,320,2012-11-05 07:53:00
1:53 AM,33.1,30.0,89,30.25,10.0,NNW,8.1,-,N/A,,Clear,340,2012-11-05 08:53:00
2:53 AM,32.0,28.9,88,30.24,10.0,NW,8.1,-,N/A,,Clear,310,2012-11-05 09:53:00
3:53 AM,23.0,21.0,92,30.27,10.0,West,9.2,-,N/A,,Clear,280,2012-11-05 10:53:00
4:53 AM,24.8,23.0,93,30.22,10.0,West,8.1,-,N/A,,Clear,270,2012-11-05 11:53:00
5:53 AM,23.0,21.0,92,30.25,10.0,WSW,3.5,-,N/A,,Clear,250,2012-11-05 12:53:00
6:53 AM,28.0,26.1,92,30.24,10.0,West,4.6,-,N/A,,Clear,270,2012-11-05 13:53:00
7:53 AM,34.0,30.9,89,30.23,10.0,Calm,Calm,-,N/A,,Mostly Cloudy,0,2012-11-05 14:53:00
8:53 AM,45.0,37.0,74,30.19,10.0,West,10.4,-,N/A,,Overcast,260,2012-11-05 15:53:00
9:53 AM,50.0,34.0,54,30.17,10.0,WSW,8.1,-,N/A,,Overcast,240,2012-11-05 16:53:00
10:53 AM,54.0,35.1,49,30.17,10.0,West,10.4,16.1,N/A,,Mostly Cloudy,270,2012-11-05 17:53:00
11:53 AM,57.9,33.1,39,30.10,10.0,SW,8.1,-,N/A,,Clear,230,2012-11-05 18:53:00
12:53 PM,59.0,33.1,38,30.06,10.0,West,10.4,-,N/A,,Clear,260,2012-11-05 19:53:00
1:53 PM,60.1,33.1,36,30.02,10.0,WSW,8.1,-,N/A,,Clear,250,2012-11-05 20:53:00
2:53 PM,62.1,33.1,34,30.02,10.0,WNW,11.5,-,N/A,,Clear,290,2012-11-05 21:53:00
3:53 PM,59.0,34.0,39,30.04,10.0,West,6.9,-,N/A,,Clear,280,2012-11-05 22:53:00
4:53 PM,48.9,32.0,52,30.06,10.0,West,8.1,-,N/A,,Clear,260,2012-11-05 23:53:00
5:53 PM,44.1,32.0,63,30.09,10.0,West,6.9,-,N/A,,Clear,270,2012-11-06 00:53:00
6:53 PM,41.0,30.9,67,30.09,10.0,WNW,10.4,-,N/A,,Clear,290,2012-11-06 01:53:00
7:53 PM,44.1,32.0,63,30.07,10.0,West,10.4,-,N/A,,Clear,280,2012-11-06 02:53:00
8:53 PM,39.9,32.0,73,30.05,10.0,WNW,9.2,-,N/A,,Clear,290,2012-11-06 03:53:00
9:53 PM,42.1,33.1,70,30.04,10.0,West,9.2,-,N/A,,Clear,280,2012-11-06 04:53:00
10:53 PM,39.9,32.0,73,30.04,10.0,West,9.2,-,N/A,,Clear,280,2012-11-06 05:53:00
11:53 PM,46.9,33.1,59,30.05,10.0,North,10.4,-,N/A,,Clear,360,2012-11-06 06:53:00